Weather History for KLJF - December, 2011

Change the Weather History Date:

Tuesday, December 13, 2011

  Actual Average Record
Temperature  
Mean Temperature 34 °F -  
Max Temperature 35 °F 27 °F - (-1)
Min Temperature 32 °F 10 °F - (-1)
Degree Days  
Heating Degree Days 32    
Moisture  
Dew Point 34 °F    
Average Humidity 100    
Maximum Humidity 100    
Minimum Humidity 100    
Precipitation  
Precipitation 0.00 in - - ()
Sea Level Pressure  
Sea Level Pressure 30.26 in    
Wind  
Wind Speed 1 mph (SE)    
Max Wind Speed 7 mph    
Max Gust Speed -    
Visibility 1 miles    
Events Fog    
Averages and records for this station are not official NWS values.
T = Trace of Precipitation, MM = Missing Value Source: NWS Daily Summary

Daily Weather History Graph

Daily Weather History Graph

Search for Another Location

Airport or City:

Trip Planner

Search our weather history database for the weather conditions in past years. The results will help you decide how hot, cold, wet, or windy it might be!

Date:

Astronomy

Dec. 13, 2011 Rise Set
Actual Time 7:48 AM CST 4:36 PM CST
Civil Twilight 7:14 AM CST 5:10 PM CST
Nautical Twilight 6:37 AM CST 5:47 PM CST
Astronomical Twilight 6:01 AM CST 6:23 PM CST
Moon 7:57 PM CST (12/13) 9:54 AM CST (12/13)
Length of Visible Light 9h 55m
Length of Day
8h 48m
Waning Gibbous, 90% of the Moon is Illuminated
Dec 13
Waning Gibbous
Dec 17
Last Quarter
Dec 24
New
Jan 1
First Quarter
Jan 9
Full

Hourly Weather History & Observations

Time (CST) Temp. Windchill Dew Point Humidity Pressure Visibility Wind Dir Wind Speed Gust Speed Precip Events Conditions
12:13 AM 33.8 °F - 33.8 °F 100% 30.28 in 0.2 mi Calm Calm - N/A Fog Fog
12:34 AM 33.8 °F - 33.8 °F 100% 30.29 in 0.2 mi Calm Calm - N/A Fog Fog
12:53 AM 33.8 °F - 33.8 °F 100% 30.29 in 0.2 mi Calm Calm - N/A Fog Fog
1:13 AM 33.8 °F - 33.8 °F 100% 30.29 in 0.2 mi Calm Calm - N/A Fog Fog
1:33 AM 33.8 °F - 33.8 °F 100% 30.28 in 0.2 mi Calm Calm - N/A Fog Fog
1:53 AM 33.8 °F - 33.8 °F 100% 30.29 in 0.2 mi Calm Calm - N/A Fog Fog
2:13 AM 33.8 °F - 33.8 °F 100% 30.29 in 0.2 mi Calm Calm - N/A Fog Fog
2:33 AM 33.8 °F - 33.8 °F 100% 30.30 in 0.2 mi Calm Calm - N/A Fog Fog
2:53 AM 33.8 °F - 33.8 °F 100% 30.30 in 0.2 mi Calm Calm - N/A Fog Fog
3:13 AM 33.8 °F - 33.8 °F 100% 30.29 in 0.2 mi Calm Calm - N/A Fog Fog
3:33 AM 33.8 °F - 33.8 °F 100% 30.29 in 0.2 mi Calm Calm - N/A Fog Fog
3:53 AM 33.8 °F 30.8 °F 33.8 °F 100% 30.28 in 0.2 mi East 3.5 mph - N/A Fog Fog
4:13 AM 33.8 °F - 33.8 °F 100% 30.28 in 0.2 mi Calm Calm - N/A Fog Fog
4:34 AM 33.8 °F - 33.8 °F 100% 30.29 in 0.2 mi Calm Calm - N/A Fog Fog
5:11 AM 33.8 °F - 33.8 °F 100% 30.29 in 0.2 mi Calm Calm - N/A Fog Fog
5:34 AM 32.0 °F - 32.0 °F 100% 30.29 in 0.2 mi Calm Calm - N/A Fog Fog
5:53 AM 32.0 °F - 32.0 °F 100% 30.29 in 0.2 mi Calm Calm - N/A Fog Fog
6:13 AM 32.0 °F - 32.0 °F 100% 30.30 in 0.2 mi Calm Calm - N/A Fog Fog
6:33 AM 32.0 °F - 32.0 °F 100% 30.30 in 0.2 mi Calm Calm - N/A Fog Fog
6:54 AM 32.0 °F - 32.0 °F 100% 30.29 in 0.2 mi Calm Calm - N/A Fog Fog
7:13 AM 32.0 °F - 32.0 °F 100% 30.29 in 0.2 mi Calm Calm - N/A Fog Fog
7:33 AM 32.0 °F - 32.0 °F 100% 30.29 in 0.2 mi Calm Calm - N/A Fog Fog
7:53 AM 32.0 °F - 32.0 °F 100% 30.28 in 0.2 mi Calm Calm - N/A Fog Fog
8:13 AM 32.0 °F - 32.0 °F 100% 30.27 in 0.2 mi Calm Calm - N/A Fog Fog
8:33 AM 32.0 °F - 32.0 °F 100% 30.27 in 0.2 mi Calm Calm - N/A Fog Fog
8:54 AM 32.0 °F 28.7 °F 32.0 °F 100% 30.28 in 0.2 mi East 3.5 mph - N/A Fog Fog
9:13 AM 33.8 °F 29.6 °F 33.8 °F 100% 30.30 in 0.2 mi SSE 4.6 mph - N/A Fog Fog
9:33 AM 32.0 °F 27.5 °F 32.0 °F 100% 30.30 in 0.2 mi SSE 4.6 mph - N/A Fog Fog
9:53 AM 32.0 °F 27.5 °F 32.0 °F 100% 30.30 in 0.2 mi SE 4.6 mph - N/A Fog Fog
10:13 AM 32.0 °F 28.7 °F 32.0 °F 100% 30.30 in 0.2 mi SE 3.5 mph - N/A Fog Fog
10:33 AM 32.0 °F - 32.0 °F 100% 30.30 in 0.2 mi Calm Calm - N/A Fog Fog
10:54 AM 32.0 °F - 32.0 °F 100% 30.30 in 0.2 mi Calm Calm - N/A Fog Fog
11:13 AM 32.0 °F - 32.0 °F 100% 30.29 in 0.8 mi Calm Calm - N/A   Overcast
11:33 AM 33.8 °F 30.8 °F 33.8 °F 100% 30.28 in 1.0 mi SSE 3.5 mph - N/A   Overcast
11:53 AM 33.8 °F - 33.8 °F 100% 30.27 in 1.0 mi Calm Calm - N/A   Overcast
12:13 PM 33.8 °F 30.8 °F 33.8 °F 100% 30.25 in 1.2 mi SSE 3.5 mph - N/A   Overcast
12:33 PM 33.8 °F 28.6 °F 33.8 °F 100% 30.24 in 1.2 mi ESE 5.8 mph - N/A   Overcast
12:54 PM 33.8 °F 30.8 °F 33.8 °F 100% 30.24 in 1.2 mi SE 3.5 mph - N/A   Overcast
1:13 PM 33.8 °F 30.8 °F 33.8 °F 100% 30.23 in 1.2 mi SE 3.5 mph - N/A   Overcast
1:33 PM 35.6 °F 30.7 °F 35.6 °F 100% 30.22 in 1.5 mi ESE 5.8 mph - N/A   Overcast
1:53 PM 35.6 °F 30.7 °F 35.6 °F 100% 30.22 in 1.5 mi ESE 5.8 mph - N/A   Overcast
2:13 PM 35.6 °F 29.9 °F 35.6 °F 100% 30.21 in 1.8 mi SE 6.9 mph - N/A   Overcast
2:33 PM 35.6 °F 30.7 °F 35.6 °F 100% 30.21 in 1.8 mi SE 5.8 mph - N/A   Overcast
2:53 PM 35.6 °F 30.7 °F 35.6 °F 100% 30.20 in 1.8 mi ESE 5.8 mph - N/A   Overcast
3:13 PM 35.6 °F 31.7 °F 35.6 °F 100% 30.20 in 2.0 mi SE 4.6 mph - N/A   Overcast
3:33 PM 35.6 °F 31.7 °F 35.6 °F 100% 30.19 in 2.0 mi SE 4.6 mph - N/A   Overcast
3:53 PM 35.6 °F 31.7 °F 35.6 °F 100% 30.20 in 2.5 mi SE 4.6 mph - N/A   Overcast
4:13 PM 35.6 °F 31.7 °F 35.6 °F 100% 30.19 in 2.5 mi SE 4.6 mph - N/A   Overcast
4:33 PM 35.6 °F 31.7 °F 35.6 °F 100% 30.19 in 4.0 mi ESE 4.6 mph - N/A   Overcast
4:53 PM 33.8 °F 27.7 °F 33.8 °F 100% 30.18 in 3.0 mi ESE 6.9 mph - N/A   Overcast
5:13 PM 33.8 °F 27.7 °F 33.8 °F 100% 30.17 in 3.0 mi SE 6.9 mph - N/A   Overcast
5:33 PM 33.8 °F 28.6 °F 33.8 °F 100% 30.18 in 3.0 mi SE 5.8 mph - N/A   Overcast
5:53 PM 33.8 °F 27.7 °F 33.8 °F 100% 30.17 in 3.0 mi ESE 6.9 mph - N/A   Overcast
6:13 PM 33.8 °F 28.6 °F 33.8 °F 100% 30.17 in 3.0 mi ESE 5.8 mph - N/A   Overcast
6:33 PM 33.8 °F 28.6 °F 33.8 °F 100% 30.17 in 3.0 mi SE 5.8 mph - N/A   Overcast
6:53 PM 35.6 °F 29.9 °F 35.6 °F 100% 30.15 in 3.0 mi ESE 6.9 mph - N/A   Overcast
7:13 PM 33.8 °F 27.0 °F 33.8 °F 100% 30.13 in 3.0 mi ESE 8.1 mph - N/A   Overcast
7:53 PM 35.6 °F 29.2 °F 35.6 °F 100% 30.12 in 4.0 mi SE 8.1 mph - N/A   Overcast
8:13 PM 35.6 °F 29.9 °F 35.6 °F 100% 30.12 in 4.0 mi ESE 6.9 mph - N/A   Overcast
8:33 PM 35.6 °F 29.2 °F 35.6 °F 100% 30.11 in 5.0 mi ESE 8.1 mph - N/A   Overcast
8:53 PM 35.6 °F 30.7 °F 35.6 °F 100% 30.11 in 5.0 mi SE 5.8 mph - N/A   Light Drizzle
9:13 PM 35.6 °F 32.8 °F 35.6 °F 100% 30.11 in 5.0 mi SE 3.5 mph - N/A Rain Rain
9:33 PM 35.6 °F 30.7 °F 35.6 °F 100% 30.12 in 5.0 mi SSE 5.8 mph - N/A   Light Drizzle
9:53 PM 35.6 °F 31.7 °F 35.6 °F 100% 30.10 in 4.0 mi SSE 4.6 mph - N/A Rain Rain
10:13 PM 35.6 °F 29.9 °F 35.6 °F 100% 30.09 in 4.0 mi SE 6.9 mph - 0.01 in Rain Light Rain
10:33 PM 35.6 °F 28.6 °F 35.6 °F 100% 30.07 in 3.0 mi SE 9.2 mph - 0.01 in Rain Rain
10:45 PM 35.6 °F 29.2 °F 35.6 °F 100% 30.06 in 4.0 mi SE 8.1 mph - 0.02 in   Light Drizzle
10:52 PM 35.6 °F 30.7 °F 35.6 °F 100% 30.06 in 4.0 mi SE 5.8 mph - N/A   Light Drizzle
11:13 PM 35.6 °F 29.2 °F 35.6 °F 100% 30.06 in 4.0 mi SE 8.1 mph - N/A   Overcast
11:33 PM 33.8 °F 27.7 °F 33.8 °F 100% 30.07 in 4.0 mi SE 6.9 mph - N/A   Overcast
11:53 PM 33.8 °F 27.7 °F 33.8 °F 100% 30.06 in 4.0 mi SE 6.9 mph - N/A   Overcast